Location: Nevendon
(51.5833°N, 0.5000°E)
Time: 16:19:48
(UTC+00:00)

Daily predictions for brighter satellites

Satellite Brightness Start Highest point End
(mag) Time Altitude Azimuth Time Altitude Azimuth Time Altitude Azimuth
Ariane Rocket 3.7 20:58:31 10° S 21:03:31 55° W 21:08:33 10° NNW
Cosmos 1954 Rocket 4.4 20:59:17 10° NNW 21:04:31 63° WSW 21:09:40 10° S
RESURS DK-1 3.0 21:02:11 10° NNW 21:06:13 48° NE 21:10:14 10° SE
USA 32 4.1 21:01:59 10° S 21:07:11 76° E 21:12:26 10° N
NOSS 2-1 (D) 4.2 21:04:21 10° NW 21:08:42 62° SW 21:14:46 10° SSE
Cosmos 1455 2.3 21:08:09 10° NNW 21:11:58 77° W 21:15:47 10° S
Cosmos 2184 Rocket 4.2 21:05:54 10° N 21:12:03 62° ENE 21:18:10 10° SSE
Resurs 01 Rocket 3.4 21:09:32 10° SSW 21:13:28 30° W 21:17:24 10° NNW
Cosmos 1850 Rocket 4.2 21:08:51 10° NNW 21:14:04 65° ENE 21:19:12 10° SE
Cosmos 2344 4.4 21:07:04 10° NW 21:15:24 68° NE 21:26:47 10° ESE
Lacrosse 5 2.7 21:19:09 10° WNW 21:23:55 41° SW 21:28:40 10° SSE
Terra 1.9 21:21:36 10° SSE 21:26:21 77° ENE 21:31:08 10° NNW
FALCON 9 DEB 3.3 21:23:36 10° W 21:26:51 69° N 21:30:07 10° ENE
SL-16 R/B 4.4 21:24:40 10° NNW 21:28:34 18° NNE 21:32:28 10° ENE
Cosmos 1025 Rocket 4.2 21:27:03 10° SSW 21:31:09 45° WNW 21:35:19 10° N
CZ-4B R/B 3.5 21:30:28 10° N 21:32:53 24° WNW 21:35:17 10° WSW
Spot 2 Rocket 3.8 21:29:13 10° S 21:34:16 67° WSW 21:39:24 10° NNW
Cosmos 1980 Rocket 3.1 21:29:50 10° NNW 21:35:15 41° NE 21:40:36 10° ESE
ATLAS 2AS CENTAUR R/B 3.4 21:28:42 10° NW 21:35:25 45° WSW 21:41:42 10° S
Cosmos 1697 Rocket 2.9 21:31:54 10° NNW 21:37:33 70° ENE 21:42:50 12° SE
USA 234 3.5 21:31:50 10° ESE 21:38:24 76° NNE 21:44:57 10° WNW
Cosmos 1656 4.0 21:37:16 10° NW 21:42:40 61° WSW 21:47:55 11° SSE
Cosmos 1452 Rocket 3.6 21:37:39 10° S 21:42:50 63° ESE 21:48:03 10° NNE
Cosmos 1703 3.2 21:39:51 10° S 21:43:41 70° E 21:47:31 10° NNE
ARIANE 5 R/B 2.7 21:41:12 11° SSE 21:45:28 87° ENE 21:49:56 10° NNW
Cosmos 1408 4.4 21:44:51 11° ESE 21:46:44 16° E 21:48:54 10° NE
CZ-2C R/B 3.7 21:44:37 10° NNE 21:49:16 82° ESE 21:53:46 10° SSW
GP-B 4.2 21:48:05 10° NNE 21:52:04 31° E 21:55:18 14° SE
Cosmos 1110 Rocket 4.3 21:48:45 10° S 21:53:49 52° ESE 21:58:58 10° NNE
Cosmos 1867 4.3 21:48:59 10° NW 21:54:20 50° NE 21:59:38 10° ESE
SL-8 R/B 4.0 21:53:08 10° W 21:57:45 47° SSW 22:02:03 12° SE
Cosmos 1328 4.3 21:55:44 14° SSE 21:58:56 46° E 22:02:47 10° NNE
Cosmos 2074 Rocket 4.4 21:53:09 10° NNW 21:59:23 64° W 22:05:31 10° S
Cosmos 2228 3.2 21:56:01 10° NNW 22:00:15 70° W 22:04:03 12° S
Cosmos 1536 Rocket 4.2 22:01:16 10° SSW 22:05:31 56° WNW 22:09:50 10° N
Cosmos 2084 Rocket 3.4 22:02:05 10° NW 22:05:57 71° NE 22:09:23 14° SE
Cosmos 1833 Rocket 2.8 22:01:28 10° SSW 22:06:58 60° ESE 22:12:30 10° NE
Cosmos 2322 Rocket 4.2 22:02:57 10° NNW 22:07:20 22° NE 22:11:42 10° E
Cosmos 2084 4.5 22:04:03 10° WSW 22:07:45 44° NW 22:11:32 10° NE
ERS-1 Rocket 4.0 22:04:00 10° SSW 22:08:44 40° W 22:13:29 10° NNW
SAR-Lupe-1 4.3 22:05:47 10° NNE 22:09:17 50° E 22:11:51 17° S
Meteor 1-21 Rocket 4.2 22:03:46 10° S 22:09:20 80° E 22:15:03 10° NNE
Cosmos 1606 Rocket 3.5 22:05:47 10° NNW 22:10:07 84° W 22:13:37 16° S
SJ 16-02 3.8 22:08:39 10° N 22:11:03 14° NE 22:13:26 10° ENE
Cosmos 2278 4.5 22:07:54 10° NNW 22:13:26 47° NE 22:18:44 11° SE
Nadezhda 1 Rocket 4.0 22:11:42 10° S 22:17:47 88° WNW 22:23:55 10° N
Cosmos 2360 4.4 22:13:49 10° NW 22:19:30 66° WSW 22:24:01 16° SSE
Cosmos 968 Rocket 3.5 22:17:57 10° NNW 22:23:10 77° ENE 22:27:10 18° SSE
Cosmos 2154 Rocket 4.4 22:19:28 10° NNW 22:25:34 58° W 22:31:18 11° S
ASTEX 1 3.4 22:26:13 10° N 22:31:15 78° E 22:35:10 17° S
Cosmos 2082 Rocket 2.7 22:27:58 16° S 22:32:06 42° ESE 22:37:27 10° NE
X-37B 1.9 22:30:47 10° WSW 22:32:25 19° SSW 22:32:25 19° SSW
USA 276 1.9 22:30:10 10° WSW 22:33:09 61° S 22:36:07 10° E
Cosmos 1726 Rocket 3.8 22:30:11 10° NNW 22:34:28 63° W 22:37:38 17° S
ADEOS Rocket 4.0 22:30:44 14° SE 22:36:57 54° ENE 22:44:25 10° N
Cosmos 1825 3.2 22:38:07 20° SE 22:39:53 31° E 22:43:14 10° NNE
ERS-2 4.4 22:38:47 10° ENE 22:40:13 12° E 22:41:23 11° ESE
RESURS DK-1 4.1 22:40:39 10° NW 22:43:56 23° WSW 22:46:32 13° SSW
USA 267 3.2 22:39:01 10° ENE 22:45:32 67° SE 22:52:03 10° SW
Cosmos 2360 Rocket 4.1 22:41:36 10° NNW 22:46:19 26° NE 22:51:01 10° E
Cosmos 1633 4.1 22:51:55 17° ESE 22:53:14 21° E 22:55:57 10° NE
SL-8 Rocket 4.0 22:47:37 10° N 22:53:56 84° W 22:58:31 19° S
H-2A R/B 4.3 22:51:07 10° NNE 22:55:03 37° E 22:57:07 22° SSE
ALOS 2 2.9 22:53:39 21° SE 22:56:29 58° ENE 23:00:49 10° N
Cosmos 1606 4.4 22:55:41 10° NNE 22:58:52 24° ENE 23:01:19 14° ESE
Cosmos 1486 Rocket 4.1 22:54:51 10° NNW 23:00:05 73° ENE 23:03:45 20° SE
FALCON 9 DEB 2.9 22:59:58 10° WNW 23:03:16 86° NNE 23:06:29 10° ESE
Cosmos 1602 Rocket 4.3 23:02:19 22° SE 23:04:32 37° E 23:08:32 10° NNE
Terra 4.1 23:01:40 10° SW 23:04:41 16° W 23:07:43 10° NW
Cosmos 1869 3.2 23:02:45 10° N 23:06:39 86° E 23:08:43 27° SSE
Cosmos 2218 Rocket 4.1 23:01:43 10° NNW 23:08:08 80° W 23:12:46 20° S
Meteor 1-27 4.2 23:03:40 10° NNW 23:09:16 83° W 23:13:00 22° S
Cosmos 2366 rocket 4.1 23:04:05 10° NNW 23:10:25 77° W 23:14:58 20° S
BREEZE-M DEB (TANK) 3.5 23:07:40 10° W 23:10:45 68° S 23:21:50 10° ESE
Cosmos 2058 Rocket 3.8 23:06:57 10° NNW 23:11:11 46° W 23:14:00 19° SSW
Cosmos 1992 Rocket 4.3 23:09:46 22° S 23:12:54 51° ESE 23:17:59 10° NNE
Cosmos 2369 4.3 23:07:52 10° NW 23:13:18 45° WSW 23:16:53 20° S
SL-16 R/B 2.6 23:08:17 10° NNW 23:13:55 59° NE 23:18:41 14° SE
COSMOS 2406 3.4 23:08:11 10° SW 23:13:58 79° WNW 23:19:46 10° NNE
Cosmos 1892 Rocket 4.4 23:10:35 13° SW 23:14:17 46° WNW 23:18:32 10° N
Cosmos 1892 3.0 23:13:06 20° SSW 23:15:29 60° WNW 23:19:14 10° N
TIMED 4.4 23:13:44 22° SSW 23:16:31 77° ESE 23:20:55 10° NNE
Cosmos 807 4.2 23:14:01 10° N 23:17:25 79° E 23:18:36 34° SSE
Cosmos-2242 3.4 23:13:34 10° N 23:17:45 52° ENE 23:20:11 23° SE
Cosmos 1980 Rocket 2.8 23:13:56 10° NW 23:19:20 45° WSW 23:22:48 21° S
Cosmos 1697 Rocket 4.2 23:16:36 10° NW 23:21:00 24° WSW 23:24:33 13° SSW
Cosmos 1408 3.5 23:18:48 17° SW 23:21:05 40° WNW 23:24:23 10° N
USA 234 3.5 23:16:55 18° SSE 23:21:39 52° SW 23:28:03 10° WNW
Cosmos 1354 Rocket 4.4 23:19:40 10° NNW 23:24:58 62° ENE 23:28:55 18° SE
Cosmos 2219 Rocket 4.3 23:21:26 10° NNW 23:26:01 24° NE 23:30:35 10° E
Cosmos 1626 Rocket 3.5 23:26:41 24° S 23:29:14 87° WNW 23:33:36 10° N
GP-B 4.4 23:25:23 10° NNW 23:29:22 33° WNW 23:32:44 13° SW
BREEZE-M DEB (TANK) 3.8 23:25:43 10° WSW 23:35:38 52° SSE 23:38:57 10° E
In-Cosmos 22 Rocket 4.4 23:32:41 17° SSW 23:36:57 67° WNW 23:42:24 10° N
Cosmos 1503 Rocket 4.0 23:31:54 10° NNW 23:37:16 88° ENE 23:40:44 22° SSE
Cosmos 1867 4.2 23:32:47 10° NW 23:37:54 41° WSW 23:40:44 23° S
Cosmos 1934 Rocket 4.5 23:34:54 10° N 23:40:50 52° ENE 23:45:24 17° SE
Cosmos 1825 Rocket 4.3 23:39:29 23° SE 23:41:37 39° E 23:45:40 10° NNE
Cosmos 1340 Rocket 4.4 23:41:37 18° SE 23:43:22 24° E 23:46:33 10° NE
BREEZE-M DEB (TANK) 4.4 23:45:28 17° SE 23:45:28 17° SE 23:48:13 10° E
SJ 16-02 1.4 23:45:58 10° NNW 23:50:26 74° ENE 23:53:10 23° SSE
Cosmos 1777 Rocket 4.3 23:45:42 10° NNW 23:51:00 66° ENE 23:55:01 17° SE
Cosmos 1833 Rocket 4.3 23:46:13 10° WSW 23:51:15 33° NW 23:56:20 10° NNE
Okean 1-7 Rocket 4.3 23:48:42 18° SW 23:51:44 47° WNW 23:56:07 10° N
Cosmos 2322 Rocket 2.3 23:46:36 10° NNW 23:52:19 78° ENE 23:56:45 17° SE
ATLAS 5 CENTAUR R/B 1.4 23:51:32 30° SSW 23:53:12 55° SE 23:57:22 10° NE
Meteor 2-20 4.4 23:49:25 22° S 23:53:32 87° E 23:59:41 10° NNE
